When you browse on this site, cookies collect data to enhance your experience and personalize the content and advertising you see.
Visit our Privacy Policy to learn more. By continuing to use the site, you agree to this use of cookies and data.
  • Em Portugal
  • Lista de países
  • Para 7 dias
  • Temperatura da água
  • Mapa do tempo
  • Widgets de tempo
  • user-avatar
    Iniciar Sessão

    Previsão horária em Sidi Bu-l-Abbas

    Hoje, 28 Janeiro, Terça-feira

    Tempo Temperatura Precipitação Vento Pressão Humidade
    00:00 +9°C° 0 mm 1 m/s 726 mmHg 77%
    01:00 +9°C° 0 mm 1 m/s 725 mmHg 76%
    02:00 +9°C° 0 mm 1 m/s 725 mmHg 76%
    03:00 +8°C° 0 mm 1 m/s 725 mmHg 76%
    04:00 +8°C° 0 mm 1 m/s 725 mmHg 73%
    05:00 +7°C° 0 mm 2 m/s 725 mmHg 71%
    06:00 +7°C° 0 mm 2 m/s 726 mmHg 67%
    07:00 +9°C° 0 mm 2 m/s 726 mmHg 61%
    08:00 +11°C° 0 mm 1 m/s 726 mmHg 56%
    09:00 +13°C° 0 mm 1 m/s 726 mmHg 50%
    10:00 +14°C° 0 mm 2 m/s 726 mmHg 47%
    11:00 +15°C° 0 mm 2 m/s 727 mmHg 44%
    12:00 +17°C° 0 mm 2 m/s 727 mmHg 42%
    13:00 +17°C° 0 mm 3 m/s 726 mmHg 42%
    14:00 +17°C° 0 mm 3 m/s 726 mmHg 42%
    15:00 +18°C° 0 mm 4 m/s 725 mmHg 42%
    16:00 +16°C° 0 mm 3 m/s 725 mmHg 50%
    17:00 +14°C° 0 mm 2 m/s 725 mmHg 58%
    18:00 +12°C° 0 mm 1 m/s 725 mmHg 67%
    19:00 +12°C° 0 mm 1 m/s 725 mmHg 67%
    20:00 +11°C° 0 mm 1 m/s 725 mmHg 66%
    21:00 +11°C° 0 mm 1 m/s 725 mmHg 66%
    22:00 +11°C° 0 mm 1 m/s 725 mmHg 66%
    23:00 +11°C° 0 mm 1 m/s 725 mmHg 65%

    Amanhã, 29 Janeiro, Quarta-feira

    Tempo Temperatura Precipitação Vento Pressão Humidade
    00:00 +11°C° 0 mm 1 m/s 725 mmHg 64%
    01:00 +10°C° 0 mm 1 m/s 725 mmHg 63%
    02:00 +10°C° 0 mm 1 m/s 725 mmHg 62%
    03:00 +10°C° 0 mm 1 m/s 724 mmHg 61%
    04:00 +10°C° 0 mm 1 m/s 724 mmHg 61%
    05:00 +9°C° 0 mm 1 m/s 724 mmHg 62%
    06:00 +9°C° 0 mm 1 m/s 725 mmHg 62%
    07:00 +11°C° 0 mm 1 m/s 725 mmHg 57%
    08:00 +13°C° 0 mm 1 m/s 726 mmHg 52%
    09:00 +15°C° 0 mm 1 m/s 726 mmHg 47%
    10:00 +16°C° 0 mm 1 m/s 726 mmHg 41%
    11:00 +18°C° 0 mm 2 m/s 726 mmHg 34%
    12:00 +19°C° 0 mm 2 m/s 726 mmHg 28%
    13:00 +19°C° 0 mm 2 m/s 726 mmHg 29%
    14:00 +19°C° 0 mm 2 m/s 725 mmHg 31%
    15:00 +19°C° 0 mm 3 m/s 725 mmHg 32%
    16:00 +17°C° 0 mm 2 m/s 725 mmHg 40%
    17:00 +15°C° 0 mm 1 m/s 725 mmHg 49%
    18:00 +12°C° 0 mm 0 m/s 725 mmHg 57%
    19:00 +13°C° 0 mm 1 m/s 725 mmHg 56%
    20:00 +13°C° 0 mm 1 m/s 725 mmHg 55%
    21:00 +13°C° 0 mm 1 m/s 726 mmHg 54%
    22:00 +12°C° 0 mm 1 m/s 726 mmHg 53%
    23:00 +12°C° 0 mm 1 m/s 726 mmHg 52%

    Depois de amanhã, 30 Janeiro, Quinta-feira

    Tempo Temperatura Precipitação Vento Pressão Humidade
    00:00 +12°C° 0 mm 1 m/s 726 mmHg 51%
    01:00 +12°C° 0 mm 1 m/s 725 mmHg 51%
    02:00 +11°C° 0 mm 1 m/s 725 mmHg 50%
    03:00 +11°C° 0 mm 1 m/s 725 mmHg 50%
    04:00 +11°C° 0 mm 1 m/s 725 mmHg 48%
    05:00 +11°C° 0 mm 1 m/s 725 mmHg 47%
    06:00 +10°C° 0 mm 2 m/s 725 mmHg 45%
    07:00 +12°C° 0 mm 2 m/s 725 mmHg 45%
    08:00 +14°C° 0 mm 1 m/s 726 mmHg 45%
    09:00 +15°C° 0 mm 1 m/s 726 mmHg 46%
    10:00 +17°C° 0 mm 2 m/s 726 mmHg 40%
    11:00 +18°C° 0 mm 2 m/s 726 mmHg 34%
    12:00 +20°C° 0 mm 3 m/s 727 mmHg 29%
    13:00 +20°C° 0 mm 3 m/s 726 mmHg 30%
    14:00 +20°C° 0 mm 3 m/s 726 mmHg 31%
    15:00 +20°C° 0 mm 4 m/s 725 mmHg 33%
    16:00 +18°C° 0 mm 3 m/s 725 mmHg 41%
    17:00 +15°C° 0 mm 2 m/s 725 mmHg 49%
    18:00 +13°C° 0 mm 1 m/s 725 mmHg 58%
    19:00 +13°C° 0 mm 1 m/s 725 mmHg 56%
    20:00 +13°C° 0 mm 1 m/s 725 mmHg 54%
    21:00 +12°C° 0 mm 2 m/s 725 mmHg 52%
    22:00 +12°C° 0 mm 2 m/s 725 mmHg 51%
    23:00 +12°C° 0 mm 2 m/s 725 mmHg 49%

    31 Janeiro, Sexta-feira

    Tempo Temperatura Precipitação Vento Pressão Humidade
    00:00 +12°C° 0 mm 2 m/s 725 mmHg 48%
    01:00 +12°C° 0 mm 2 m/s 725 mmHg 46%
    02:00 +11°C° 0 mm 3 m/s 725 mmHg 44%
    03:00 +11°C° 0 mm 3 m/s 725 mmHg 43%
    04:00 +11°C° 0 mm 3 m/s 725 mmHg 42%
    05:00 +10°C° 0 mm 3 m/s 725 mmHg 42%
    06:00 +10°C° 0 mm 3 m/s 724 mmHg 41%
    07:00 +12°C° 0 mm 3 m/s 725 mmHg 41%
    08:00 +13°C° 0 mm 3 m/s 726 mmHg 41%
    09:00 +15°C° 0 mm 2 m/s 726 mmHg 41%
    10:00 +17°C° 0 mm 4 m/s 726 mmHg 38%
    11:00 +17°C° 0 mm 5 m/s 726 mmHg 34%
    12:00 +19°C° 0 mm 6 m/s 726 mmHg 31%
    13:00 +19°C° 0 mm 6 m/s 726 mmHg 32%
    14:00 +19°C° 0 mm 6 m/s 725 mmHg 34%
    15:00 +19°C° 0 mm 6 m/s 725 mmHg 35%
    16:00 +16°C° 0 mm 5 m/s 725 mmHg 42%
    17:00 +14°C° 0 mm 3 m/s 724 mmHg 49%
    18:00 +13°C° 0 mm 2 m/s 724 mmHg 56%
    19:00 +13°C° 0 mm 2 m/s 725 mmHg 54%
    20:00 +13°C° 0 mm 2 m/s 725 mmHg 52%
    21:00 +12°C° 0 mm 2 m/s 725 mmHg 51%
    22:00 +12°C° 0 mm 2 m/s 725 mmHg 50%
    23:00 +12°C° 0 mm 2 m/s 725 mmHg 49%

    1 Fevereiro, Sábado

    Tempo Temperatura Precipitação Vento Pressão Humidade
    00:00 +12°C° 0 mm 2 m/s 725 mmHg 48%
    01:00 +12°C° 0 mm 1 m/s 725 mmHg 50%
    02:00 +11°C° 0 mm 1 m/s 725 mmHg 51%
    03:00 +11°C° 0 mm 1 m/s 724 mmHg 52%
    04:00 +11°C° 0 mm 1 m/s 724 mmHg 51%
    05:00 +10°C° 0 mm 1 m/s 724 mmHg 51%
    06:00 +10°C° 0 mm 1 m/s 724 mmHg 50%
    07:00 +12°C° 0 mm 1 m/s 725 mmHg 47%
    08:00 +14°C° 0 mm 1 m/s 726 mmHg 45%
    09:00 +16°C° 0 mm 2 m/s 726 mmHg 42%
    10:00 +17°C° 0 mm 2 m/s 726 mmHg 40%
    11:00 +18°C° 0 mm 2 m/s 727 mmHg 38%
    12:00 +19°C° 0 mm 3 m/s 727 mmHg 36%
    13:00 +20°C° 0 mm 3 m/s 726 mmHg 36%
    14:00 +20°C° 0 mm 3 m/s 726 mmHg 37%
    15:00 +20°C° 0 mm 3 m/s 726 mmHg 37%
    16:00 +18°C° 0 mm 2 m/s 726 mmHg 43%
    17:00 +16°C° 0 mm 1 m/s 726 mmHg 49%
    18:00 +14°C° 0 mm 1 m/s 726 mmHg 55%
    19:00 +14°C° 0 mm 1 m/s 726 mmHg 57%
    20:00 +12°C° 0 mm 0 m/s 726 mmHg 58%
    21:00 +12°C° 0 mm 0 m/s 726 mmHg 59%
    22:00 +12°C° 0 mm 0 m/s 726 mmHg 59%
    23:00 +11°C° 0 mm 0 m/s 726 mmHg 59%

    2 Fevereiro, Domingo

    Tempo Temperatura Precipitação Vento Pressão Humidade
    00:00 +11°C° 0 mm 0 m/s 726 mmHg 59%
    01:00 +11°C° 0 mm 0 m/s 726 mmHg 60%
    02:00 +11°C° 0 mm 0 m/s 726 mmHg 61%
    03:00 +10°C° 0 mm 0 m/s 726 mmHg 62%
    04:00 +10°C° 0 mm 0 m/s 726 mmHg 65%
    05:00 +10°C° 0 mm 0 m/s 726 mmHg 68%
    06:00 +10°C° 0 mm 0 m/s 726 mmHg 71%
    07:00 +13°C° 0 mm 1 m/s 727 mmHg 64%
    08:00 +15°C° 0 mm 1 m/s 728 mmHg 57%
    09:00 +18°C° 0 mm 1 m/s 729 mmHg 51%
    10:00 +19°C° 0 mm 1 m/s 729 mmHg 47%
    11:00 +20°C° 0 mm 1 m/s 729 mmHg 44%
    12:00 +21°C° 0 mm 1 m/s 729 mmHg 41%
    13:00 +22°C° 0 mm 1 m/s 728 mmHg 40%
    14:00 +21°C° 0 mm 2 m/s 728 mmHg 40%
    15:00 +23°C° 0 mm 2 m/s 728 mmHg 39%
    16:00 +20°C° 0 mm 2 m/s 727 mmHg 44%
    17:00 +18°C° 0 mm 2 m/s 727 mmHg 50%
    18:00 +17°C° 0 mm 2 m/s 727 mmHg 56%
    19:00 +16°C° 0 mm 2 m/s 727 mmHg 57%
    20:00 +16°C° 0 mm 2 m/s 728 mmHg 58%
    21:00 +15°C° 0 mm 2 m/s 728 mmHg 59%
    22:00 +15°C° 0 mm 2 m/s 728 mmHg 60%
    23:00 +15°C° 0 mm 2 m/s 728 mmHg 60%
    Mostrar mais